This is the latest recevied weather packets stored in our database for station/object EA2MKR. If no packets are shown the sender has not sent any weather packets the latest 10 day(s).
| Time | Temp. | Humidity | Pressure | Rain* | Wind** | Luminosity | Snow |
|---|---|---|---|---|---|---|---|
| 1788432430 | 27.22° C | 43% | 961.3 hPa | 0 mm | - | - | - |
| 1788432131 | 27.22° C | 44% | 961.2 hPa | 0 mm | - | - | - |
| 1788431831 | 26.67° C | 45% | 961.3 hPa | 0 mm | - | - | - |
| 1788431652 | 26.67° C | 48% | 961.3 hPa | 0 mm | - | - | - |
| 1788431351 | 25.56° C | 48% | 961.4 hPa | 0 mm | - | - | - |
| 1788430927 | 25.56° C | 49% | 961.4 hPa | 0 mm | - | - | - |
| 1788430627 | 25.56° C | 51% | 961.5 hPa | 0 mm | - | - | - |
| 1788430328 | 25° C | 52% | 961.6 hPa | 0 mm | - | - | - |
| 1788430027 | 25° C | 53% | 961.6 hPa | 0 mm | - | - | - |
| 1788429727 | 24.44° C | 53% | 961.7 hPa | 0 mm | - | - | - |
| 1788429427 | 23.89° C | 53% | 961.8 hPa | 0 mm | - | - | - |
| 1788429127 | 23.89° C | 56% | 961.8 hPa | 0 mm | - | - | - |
| 1788428951 | 23.33° C | 54% | 961.8 hPa | 0 mm | - | - | - |
| 1788428528 | 23.33° C | 57% | 961.8 hPa | 0 mm | - | - | - |
| 1788428352 | 22.78° C | 58% | 961.9 hPa | 0 mm | - | - | - |
| 1788428050 | 22.78° C | 61% | 961.9 hPa | 0 mm | - | - | - |
| 1788427622 | 22.22° C | 62% | 961.9 hPa | 0 mm | - | - | - |
| 1788427323 | 22.22° C | 63% | 961.9 hPa | 0 mm | - | - | - |
| 1788427143 | 21.67° C | 64% | 961.9 hPa | 0 mm | - | - | - |
| 1788426721 | 21.67° C | 61% | 961.9 hPa | 0 mm | - | - | - |
| 1788426422 | 21.11° C | 64% | 962 hPa | 0 mm | - | - | - |
| 1788426245 | 20.56° C | 68% | 962.1 hPa | 0 mm | - | - | - |
| 1788425817 | 20.56° C | 71% | 962.1 hPa | 0 mm | - | - | - |
| 1788425515 | 20° C | 71% | 962.1 hPa | 0 mm | - | - | - |
| 1788425212 | 20° C | 73% | 962 hPa | 0 mm | - | - | - |
* Rain latest hour (hover to see other rain measurements)
** Current wind speed in m/s (hover to see current wind gust speed)